星链-31231 (STARLINK-31231 )

导读

STARLINK-31231是美国SpaceX公司星链(Starlink)星座的一颗低轨通信卫星,于2024年2月25日发射入轨,服务全球卫星互联网。星链星座旨在为全球尤其是偏远地区提供高速宽带服务,该星采用平板设计、霍尔推进,具备自主避撞能力,寿命终结后会主动离轨坠入大气层烧毁,属于Starlink第二代组网卫星,助力扩大星座覆盖范围与服务能力。

基本信息
目录编号:
59034
目录名称:
STARLINK-31231
国际标识:
2024-038M
轨道中心:
EARTH
卫星名称:
星链-31231
卫星全名:
星链-31231 (STARLINK-31231 )
卫星状态:
在轨 (已飞行844 天)
发射日期:
2024-02-25 UTC
国别 :
美国 (US)
星等 :
--
轨道信息
数据来源 国际轨道数据 AOE轨道数据
星历时间 2026-06-16T15:55:09+0800
1天前
查看轨道信息
2026-06-16T05:00:00+0800
2天前
查看轨道信息
半长轴 6861.193km 6861.201km
偏心率 0.00008 0.0001496
轨道倾角 43.001° 43.000°
近地点辐角 280.534° 287.086°
升交点赤经 186.528° 189.099°
平近点角 79.542° 88.075°
近地点 482.507km 482.037km
远地点 483.605km 484.091km
周期 94.267分钟 94.267分钟
每日圈数 15.275779 15.275752
详细信息
固有亮度:
5
最大亮度:
0.3
卫星平台:
Starlink v2.0 mini
覆盖范围:
全球
运营商:
太空探索技术公司
运营商所在国:
美国
制造商(研发单位):
太空探索技术公司
制造商所在国:
美国
使用方式:
暂无
卫星简介
星链(Starlink)计划是由太空探索技术公司(SpaceX)提出的一个巨型低轨卫星互联网星座项目,计划在2019年至2024年间在太空搭建由约1.2万颗卫星组成的“星链”网络,其中1584颗将部署在地球上空550千米处的近地轨道,并从2020年开始工作。该卫星仍在工作。
2D轨道图
3D轨道图
轨道高度分析图
轨道倾角分析图
轨道综合分析图
查看轨道综合分析图